Location: Zapote
(9.9191°N, 84.0597°W)
Time: 08:09:02
(UTC-06:00)

ITUPSAT 1 - Visible Passes

Search period start: 20 April 2021 00:00
Search period end: 30 April 2021 00:00
Orbit: 702 x 712 km, 98.6° (Epoch: 20 April)

Date Brightness Start Highest point End Pass type
(mag) Time Alt. Az. Time Alt. Az. Time Alt. Az.
20 Apr ? 18:42:00 10° N 18:46:39 54° WNW 18:51:18 10° SSW visible
21 Apr ? 19:27:56 10° NW 19:30:35 15° WNW 19:33:14 10° WSW visible
22 Apr ? 18:32:25 10° N 18:37:11 73° WNW 18:41:56 10° SSW visible
23 Apr ? 19:17:43 10° NNW 19:21:09 20° WNW 19:24:34 10° WSW visible
24 Apr ? 18:22:55 10° NNE 18:27:42 83° ESE 18:32:29 10° S visible
25 Apr ? 19:07:44 10° NNW 19:11:41 26° WNW 19:15:38 10° SW visible
26 Apr ? 18:13:31 10° NNE 18:18:13 61° ESE 18:22:55 10° S visible
27 Apr ? 18:57:55 10° N 19:02:14 35° WNW 19:06:32 10° SW visible
28 Apr ? 18:04:10 10° NNE 18:08:44 45° ESE 18:13:16 10° S visible
29 Apr ? 18:48:12 10° N 18:52:46 47° WNW 18:57:19 10° SSW visible
